Location: Tamazert
(32.6352°N, 5.2072°W)
Time: 04:17:04
(UTC+00:00)

Vanguard 1 Rocket - Pass Details

Date: 12 October 2022
Orbit: 650 x 4225 km, 34.3° (Epoch: 05 December)

Event Time Altitude Azimuth Distance (km) Brightness Sun altitude
Rises 23:43:20 0° 289° (WNW) 7,053 12.1 -64.1°
Reaches altitude 10° 23:49:02 10° 285° (WNW) 5,449 11.4 -64.3°
Enters shadow 23:51:29 15° 282° (WNW) 4,734 11.0 -64.4°
Maximum altitude 00:02:09 46° 218° (SW) 2,073 - -64.6°
Drops below altitude 10° 00:09:08 10° 146° (SE) 2,962 - -64.7°
Sets 00:11:20 0° 139° (SE) 3,657 - -64.7°
